Time,TemperatureF,DewpointF,PressureIn,WindDirection,WindDirectionDegrees,WindSpeedMPH,WindSpeedGustMPH,Humidity,HourlyPrecipIn,Conditions,Clouds,dailyrainin,SoftwareType,DateUTC
2013-11-12 00:03:00,19.9,11.1,30.79,NNE,22,9.4,-999.0,68,-99.99,,,0.00,Acu-Link.com,2013-11-12 06:03:00,
2013-11-12 00:48:00,19.0,10.9,30.80,North,0,13.0,-999.0,70,-99.99,,,0.00,Acu-Link.com,2013-11-12 06:48:00,
2013-11-12 01:03:00,17.6,10.4,30.79,NNE,22,10.4,-999.0,73,-99.99,,,0.00,Acu-Link.com,2013-11-12 07:03:00,
2013-11-12 01:18:00,17.4,10.3,30.80,North,0,10.9,-999.0,73,-99.99,,,0.00,Acu-Link.com,2013-11-12 07:18:00,
2013-11-12 01:34:00,17.2,10.1,30.80,NW,315,11.4,-999.0,73,-99.99,,,0.00,Acu-Link.com,2013-11-12 07:34:00,
2013-11-12 02:03:00,17.2,10.1,30.81,NNW,337,5.8,-999.0,73,-99.99,,,0.00,Acu-Link.com,2013-11-12 08:03:00,
2013-11-12 02:18:00,16.3,10.1,30.82,NNE,22,7.3,-999.0,76,-99.99,,,0.00,Acu-Link.com,2013-11-12 08:18:00,
2013-11-12 02:33:00,16.2,10.0,30.83,NNE,22,8.3,-999.0,76,-99.99,,,0.00,Acu-Link.com,2013-11-12 08:33:00,
2013-11-12 02:48:00,15.8,9.6,30.84,WNW,292,6.3,-999.0,76,-99.99,,,0.00,Acu-Link.com,2013-11-12 08:48:00,
2013-11-12 03:04:00,15.4,9.5,30.83,NNW,337,6.3,-999.0,77,-99.99,,,0.00,Acu-Link.com,2013-11-12 09:04:00,
2013-11-12 03:19:00,15.3,9.4,30.83,NNW,337,6.3,-999.0,77,-99.99,,,0.00,Acu-Link.com,2013-11-12 09:19:00,
2013-11-12 03:34:00,15.1,9.2,30.84,NNW,337,6.3,-999.0,77,-99.99,,,0.00,Acu-Link.com,2013-11-12 09:34:00,
2013-11-12 03:49:00,14.9,9.3,30.84,NNW,337,5.3,-999.0,78,-99.99,,,0.00,Acu-Link.com,2013-11-12 09:49:00,
2013-11-12 04:04:00,14.7,9.4,30.84,NW,315,5.3,-999.0,79,-99.99,,,0.00,Acu-Link.com,2013-11-12 10:04:00,
2013-11-12 04:20:00,14.2,9.2,30.84,NW,315,4.7,-999.0,80,-99.99,,,0.00,Acu-Link.com,2013-11-12 10:20:00,
2013-11-12 04:35:00,13.6,8.6,30.84,NW,315,4.2,-999.0,80,-99.99,,,0.00,Acu-Link.com,2013-11-12 10:35:00,
2013-11-12 04:50:00,13.5,8.8,30.85,NW,315,3.7,-999.0,81,-99.99,,,0.00,Acu-Link.com,2013-11-12 10:50:00,
2013-11-12 05:05:00,12.9,8.5,30.85,West,270,2.7,-999.0,82,-99.99,,,0.00,Acu-Link.com,2013-11-12 11:05:00,
2013-11-12 05:21:00,12.2,8.3,30.85,West,270,1.1,-999.0,84,-99.99,,,0.00,Acu-Link.com,2013-11-12 11:21:00,
2013-11-12 05:36:00,11.7,8.3,30.85,West,270,1.7,-999.0,86,-99.99,,,0.00,Acu-Link.com,2013-11-12 11:36:00,
2013-11-12 05:51:00,11.5,8.4,30.87,WNW,292,1.7,-999.0,87,-99.99,,,0.00,Acu-Link.com,2013-11-12 11:51:00,
2013-11-12 06:06:00,11.3,8.2,30.88,WNW,292,2.2,-999.0,87,-99.99,,,0.00,Acu-Link.com,2013-11-12 12:06:00,
2013-11-12 06:21:00,10.8,8.0,30.88,SW,225,0.0,-999.0,88,-99.99,,,0.00,Acu-Link.com,2013-11-12 12:21:00,
2013-11-12 06:37:00,10.0,7.7,30.90,NNW,337,0.0,-999.0,90,-99.99,,,0.00,Acu-Link.com,2013-11-12 12:37:00,
2013-11-12 06:52:00,10.0,7.9,30.90,West,270,2.7,-999.0,91,-99.99,,,0.00,Acu-Link.com,2013-11-12 12:52:00,
2013-11-12 07:07:00,10.4,8.3,30.91,West,270,1.7,-999.0,91,-99.99,,,0.00,Acu-Link.com,2013-11-12 13:07:00,
2013-11-12 07:22:00,10.8,8.7,30.91,West,270,2.7,-999.0,91,-99.99,,,0.00,Acu-Link.com,2013-11-12 13:22:00,
2013-11-12 07:37:00,12.9,9.5,30.91,West,270,3.2,-999.0,86,-99.99,,,0.00,Acu-Link.com,2013-11-12 13:37:00,
2013-11-12 07:53:00,15.1,10.6,30.91,West,270,3.7,-999.0,82,-99.99,,,0.00,Acu-Link.com,2013-11-12 13:53:00,
2013-11-12 08:08:00,16.0,10.4,30.91,NNW,337,3.2,-999.0,78,-99.99,,,0.00,Acu-Link.com,2013-11-12 14:08:00,
2013-11-12 08:23:00,17.4,11.2,30.92,North,0,5.3,-999.0,76,-99.99,,,0.00,Acu-Link.com,2013-11-12 14:23:00,
2013-11-12 08:38:00,18.7,11.8,30.92,NNW,337,5.3,-999.0,74,-99.99,,,0.00,Acu-Link.com,2013-11-12 14:38:00,
2013-11-12 08:53:00,19.8,11.3,30.92,NNW,337,3.2,-999.0,69,-99.99,,,0.00,Acu-Link.com,2013-11-12 14:53:00,
2013-11-12 09:09:00,21.4,11.8,30.92,NE,45,6.3,-999.0,66,-99.99,,,0.00,Acu-Link.com,2013-11-12 15:09:00,
2013-11-12 09:24:00,22.5,12.2,30.93,NNE,22,4.2,-999.0,64,-99.99,,,0.00,Acu-Link.com,2013-11-12 15:24:00,
2013-11-12 09:39:00,24.3,12.8,30.92,NNW,337,4.2,-999.0,61,-99.99,,,0.00,Acu-Link.com,2013-11-12 15:39:00,
2013-11-12 09:54:00,24.4,12.2,30.92,North,0,3.7,-999.0,59,-99.99,,,0.00,Acu-Link.com,2013-11-12 15:54:00,
2013-11-12 10:10:00,26.2,12.3,30.92,North,0,4.2,-999.0,55,-99.99,,,0.00,Acu-Link.com,2013-11-12 16:10:00,
2013-11-12 10:25:00,28.0,12.7,30.92,NNW,337,3.2,-999.0,52,-99.99,,,0.00,Acu-Link.com,2013-11-12 16:25:00,
2013-11-12 10:40:00,28.9,12.2,30.91,South,180,3.2,-999.0,49,-99.99,,,0.00,Acu-Link.com,2013-11-12 16:40:00,
2013-11-12 10:55:00,31.3,12.5,30.90,West,270,4.2,-999.0,45,-99.99,,,0.00,Acu-Link.com,2013-11-12 16:55:00,
2013-11-12 11:10:00,31.1,12.3,30.89,WNW,292,4.7,-999.0,45,-99.99,,,0.00,Acu-Link.com,2013-11-12 17:10:00,
2013-11-12 11:26:00,32.7,11.6,30.90,NNW,337,4.2,-999.0,41,-99.99,,,0.00,Acu-Link.com,2013-11-12 17:26:00,
2013-11-12 11:41:00,33.1,12.5,30.88,WNW,292,2.7,-999.0,42,-99.99,,,0.00,Acu-Link.com,2013-11-12 17:41:00,
2013-11-12 11:56:00,33.4,12.8,30.87,NNE,22,3.7,-999.0,42,-99.99,,,0.00,Acu-Link.com,2013-11-12 17:56:00,
2013-11-12 12:11:00,35.6,12.5,30.86,WNW,292,2.7,-999.0,38,-99.99,,,0.00,Acu-Link.com,2013-11-12 18:11:00,
2013-11-12 12:26:00,35.2,12.8,30.85,NW,315,4.2,-999.0,39,-99.99,,,0.00,Acu-Link.com,2013-11-12 18:26:00,
2013-11-12 12:42:00,36.5,12.7,30.84,NE,45,2.7,-999.0,37,-99.99,,,0.00,Acu-Link.com,2013-11-12 18:42:00,
2013-11-12 12:57:00,37.4,11.6,30.82,West,270,2.2,-999.0,34,-99.99,,,0.00,Acu-Link.com,2013-11-12 18:57:00,
2013-11-12 13:12:00,37.6,11.1,30.82,South,180,2.2,-999.0,33,-99.99,,,0.00,Acu-Link.com,2013-11-12 19:12:00,
2013-11-12 13:28:00,37.8,12.0,30.80,West,270,2.7,-999.0,34,-99.99,,,0.00,Acu-Link.com,2013-11-12 19:28:00,
2013-11-12 13:43:00,38.7,8.4,30.80,WSW,247,1.7,-999.0,28,-99.99,,,0.00,Acu-Link.com,2013-11-12 19:43:00,
2013-11-12 14:04:00,39.0,8.7,30.79,NW,315,3.2,-999.0,28,-99.99,,,0.00,Acu-Link.com,2013-11-12 20:04:00,
2013-11-12 14:21:00,37.9,7.7,30.79,WSW,247,2.7,-999.0,28,-99.99,,,0.00,Acu-Link.com,2013-11-12 20:21:00,
2013-11-12 18:12:00,26.2,6.3,30.71,SSW,202,2.7,-999.0,42,-99.99,,,0.00,Acu-Link.com,2013-11-13 00:12:00,
2013-11-12 18:27:00,26.1,6.7,30.71,SSW,202,2.2,-999.0,43,-99.99,,,0.00,Acu-Link.com,2013-11-13 00:27:00,
2013-11-12 18:42:00,25.5,6.7,30.71,South,180,3.2,-999.0,44,-99.99,,,0.00,Acu-Link.com,2013-11-13 00:42:00,
2013-11-12 18:58:00,25.2,7.4,30.71,South,180,2.7,-999.0,46,-99.99,,,0.00,Acu-Link.com,2013-11-13 00:58:00,
2013-11-12 19:13:00,24.6,7.3,30.70,SSE,157,4.2,-999.0,47,-99.99,,,0.00,Acu-Link.com,2013-11-13 01:13:00,
2013-11-12 19:28:00,24.3,7.9,30.69,SSW,202,4.2,-999.0,49,-99.99,,,0.00,Acu-Link.com,2013-11-13 01:28:00,
2013-11-12 19:43:00,23.4,8.0,30.69,SSE,157,3.7,-999.0,51,-99.99,,,0.00,Acu-Link.com,2013-11-13 01:43:00,
2013-11-12 19:58:00,23.2,7.8,30.70,South,180,2.7,-999.0,51,-99.99,,,0.00,Acu-Link.com,2013-11-13 01:58:00,
2013-11-12 20:14:00,22.6,8.5,30.70,SSW,202,3.7,-999.0,54,-99.99,,,0.00,Acu-Link.com,2013-11-13 02:14:00,
2013-11-12 20:29:00,22.5,8.4,30.71,South,180,3.7,-999.0,54,-99.99,,,0.00,Acu-Link.com,2013-11-13 02:29:00,
2013-11-12 20:44:00,22.5,8.4,30.71,South,180,3.7,-999.0,54,-99.99,,,0.00,Acu-Link.com,2013-11-13 02:44:00,
2013-11-12 20:59:00,22.1,8.4,30.71,South,180,3.7,-999.0,55,-99.99,,,0.00,Acu-Link.com,2013-11-13 02:59:00,
2013-11-12 21:15:00,21.4,8.6,30.70,South,180,3.2,-999.0,57,-99.99,,,0.00,Acu-Link.com,2013-11-13 03:15:00,
2013-11-12 21:30:00,21.2,8.8,30.70,SSE,157,3.2,-999.0,58,-99.99,,,0.00,Acu-Link.com,2013-11-13 03:30:00,
2013-11-12 21:45:00,21.0,9.3,30.69,South,180,2.7,-999.0,60,-99.99,,,0.00,Acu-Link.com,2013-11-13 03:45:00,
2013-11-12 22:00:00,22.1,9.2,30.68,SW,225,3.7,-999.0,57,-99.99,,,0.00,Acu-Link.com,2013-11-13 04:00:00,
2013-11-12 22:15:00,21.9,9.0,30.68,South,180,3.7,-999.0,57,-99.99,,,0.00,Acu-Link.com,2013-11-13 04:15:00,
2013-11-12 22:31:00,20.8,9.1,30.67,South,180,3.7,-999.0,60,-99.99,,,0.00,Acu-Link.com,2013-11-13 04:31:00,
2013-11-12 22:46:00,20.1,9.2,30.68,SSE,157,2.2,-999.0,62,-99.99,,,0.00,Acu-Link.com,2013-11-13 04:46:00,
2013-11-12 23:01:00,20.8,9.5,30.65,South,180,2.7,-999.0,61,-99.99,,,0.00,Acu-Link.com,2013-11-13 05:01:00,
2013-11-12 23:16:00,21.2,9.5,30.65,SW,225,3.7,-999.0,60,-99.99,,,0.00,Acu-Link.com,2013-11-13 05:16:00,
2013-11-12 23:31:00,21.2,9.5,30.63,South,180,5.8,-999.0,60,-99.99,,,0.00,Acu-Link.com,2013-11-13 05:31:00,
2013-11-12 23:47:00,21.9,10.5,30.62,South,180,9.4,-999.0,61,-99.99,,,0.00,Acu-Link.com,2013-11-13 05:47:00,